Theta_e
301 301 302 303 304 306 309 311 312 313 313 313 313 312 312 313 314 314 319 326 328 330 328 327 328 331 332 332 340 337 342 342 343 346 345 347 348 347 350 346 348 346 351 349 347 347 346 338 341 345 346 341 341 346
301 301 301 301 302 302 304 306 308 310 311 311 311 311 311 312 313 314 321 322 323 327 328 326 326 326 327 329 329 336 340 338 341 348 345 344 346 346 346 348 340 348 344 344 347 352 347 341 345 340 339 340 340 342
301 301 301 301 302 301 302 304 305 306 307 309 310 310 310 310 312 311 313 318 322 327 328 329 331 328 328 328 326 329 336 338 342 338 341 340 343 342 346 342 343 340 340 347 342 340 343 344 343 340 339 340 337 338
301 301 301 301 301 301 301 302 304 306 307 308 308 308 308 308 309 310 311 315 319 325 331 332 331 329 329 328 327 326 328 332 334 337 337 342 343 339 340 341 342 339 341 340 340 341 343 342 341 339 339 336 337 337
301 301 301 301 301 301 301 301 301 303 305 305 306 306 306 306 306 310 313 314 319 324 330 329 326 329 328 326 326 327 329 330 334 338 341 343 339 336 337 336 339 339 341 345 349 334 337 338 338 338 338 341 342 342
300 301 301 301 301 301 301 301 301 301 301 302 303 303 303 303 304 313 326 322 322 324 327 333 330 331 327 326 326 328 329 332 335 337 338 338 336 341 340 340 338 338 338 339 337 335 335 338 338 338 341 340 340 340
300 300 300 300 301 301 301 301 301 301 301 301 301 301 302 302 303 312 321 321 320 322 328 335 337 332 329 328 327 328 330 334 335 336 338 337 336 335 336 341 337 335 334 337 335 332 331 338 338 337 339 337 337 337
304 301 300 300 300 301 301 301 301 301 301 300 300 301 302 303 306 311 320 318 316 319 327 336 336 334 328 330 330 329 335 335 337 335 336 338 337 337 338 336 335 334 334 338 337 335 334 336 336 336 336 336 336 336
303 304 301 300 300 301 301 300 301 301 300 300 302 305 306 311 317 324 323 320 318 322 332 337 338 337 333 331 332 333 335 338 334 336 334 334 336 346 347 343 340 336 334 335 335 336 334 337 337 336 338 336 337 336
303 303 301 300 300 301 300 300 301 300 301 303 304 311 319 323 321 319 321 324 324 325 326 332 333 338 332 336 336 337 334 336 338 335 332 335 349 347 343 341 338 334 332 341 341 342 341 338 337 337 336 337 338 335
301 301 301 301 300 300 300 301 300 301 309 309 315 322 319 320 321 326 331 332 332 333 332 331 330 334 334 338 337 337 338 340 338 338 339 336 345 344 343 341 338 336 338 338 338 338 338 338 339 338 338 337 335 334
300 300 300 300 300 300 300 300 300 303 306 305 306 311 314 323 327 331 333 333 333 334 336 332 333 332 335 334 341 338 339 338 340 338 341 343 343 336 334 337 338 337 336 336 335 335 335 335 335 334 333 333 334 336
300 300 300 300 300 300 300 300 300 302 305 311 314 320 324 328 328 332 334 336 336 334 336 335 334 335 337 334 340 336 335 337 338 342 338 340 339 333 333 332 334 332 331 330 330 331 329 330 328 331 333 334 335 334
303 300 301 301 301 300 300 300 302 305 307 312 320 320 326 329 329 331 332 335 336 336 336 338 339 338 336 335 336 340 337 339 342 341 340 341 334 332 332 333 333 332 331 332 330 329 329 330 330 328 328 327 327 329
304 301 301 301 301 300 301 301 302 305 307 314 319 324 328 326 327 328 330 333 335 335 336 338 338 338 339 334 336 337 339 338 341 344 342 338 335 334 334 333 333 333 332 330 329 330 329 329 329 328 326 326 326 327
303 301 302 302 303 301 302 302 305 308 308 312 317 323 328 331 331 333 335 336 332 331 337 338 339 339 338 336 337 338 336 339 343 341 337 335 334 333 331 330 331 331 329 329 328 328 328 329 328 331 329 326 326 326
301 304 303 301 302 302 302 305 308 311 313 318 324 324 328 330 330 333 334 332 334 335 338 337 337 337 336 337 339 340 342 342 340 338 335 333 333 332 331 330 329 328 327 329 329 327 328 326 325 324 325 326 324 324
303 304 303 302 304 304 304 306 311 314 318 320 323 328 328 330 330 331 329 329 333 334 334 335 333 337 338 339 338 339 337 335 334 334 334 333 333 331 330 330 330 330 329 328 326 326 324 321 320 319 316 318 318 315
303 302 303 302 306 307 310 312 312 319 320 321 323 325 326 327 327 328 329 330 330 330 332 332 334 336 337 336 336 336 334 332 333 332 332 330 329 329 329 328 327 326 326 323 322 324 317 314 313 313 313 313 312 308
301 301 303 304 305 308 314 317 316 320 323 324 324 325 325 325 327 327 327 328 329 328 331 331 331 329 330 329 331 331 330 330 330 329 329 328 324 322 324 322 325 325 323 318 315 316 313 310 309 310 309 308 310 307
305 307 306 306 309 309 314 319 320 322 322 324 323 324 325 326 328 327 326 326 326 327 328 328 327 324 323 323 325 327 328 327 328 326 324 324 323 321 318 316 318 316 314 313 313 311 309 308 307 309 308 306 307 305
310 308 311 311 313 314 316 317 321 321 321 323 323 324 324 328 327 325 325 325 325 325 324 325 326 324 322 323 323 323 322 322 321 320 319 318 318 317 315 313 313 312 311 311 311 310 308 306 307 307 305 305 305 303
310 311 312 313 315 315 314 318 321 321 323 323 323 324 326 327 329 324 325 324 324 323 323 323 323 323 325 323 321 320 320 319 319 318 316 316 316 314 310 308 308 309 309 308 308 308 307 305 305 306 304 302 303 303
311 312 316 318 318 316 318 320 321 322 323 322 323 323 326 327 327 327 326 325 323 322 322 323 323 323 322 320 318 317 316 316 315 312 311 315 314 311 308 307 306 306 307 306 306 306 305 304 304 304 303 302 301 302
314 311 313 309 316 318 317 316 322 322 322 320 322 325 326 326 326 326 325 322 322 322 322 322 322 322 321 319 317 315 313 313 312 310 308 308 310 310 308 306 304 304 304 304 304 304 304 303 303 303 303 302 301 301
310 316 313 319 320 320 322 321 322 323 322 322 324 325 327 327 324 323 319 315 314 312 313 317 318 317 317 315 314 311 309 309 308 307 306 306 306 307 308 307 305 303 302 303 303 303 303 302 302 302 303 302 301 302
316 319 319 320 320 321 322 322 322 323 324 325 324 325 325 324 323 318 313 313 313 309 308 310 312 313 312 309 307 306 305 305 305 305 304 304 304 304 304 303 302 303 302 302 302 302 301 302 302 302 302 302 302 303
320 320 321 320 321 322 321 322 322 323 324 324 325 325 323 321 319 313 312 307 308 308 307 307 307 308 309 308 306 305 305 305 305 305 304 304 304 304 304 303 302 302 303 302 302 302 302 301 301 302 302 302 302 302
320 320 319 321 321 321 322 323 323 324 323 325 322 321 318 315 313 309 309 308 308 308 308 307 307 306 306 306 306 306 306 306 307 308 308 308 306 305 304 304 303 303 303 303 303 302 302 301 301 301 301 301 302 302
319 317 318 318 319 320 319 319 320 318 316 316 315 314 313 312 310 308 307 306 308 311 310 308 308 307 307 306 306 306 305 305 305 305 306 306 305 305 305 305 305 305 304 303 303 303 302 301 302 303 302 302 302 302
319 317 317 318 319 318 317 315 315 316 316 315 314 314 312 311 310 309 310 311 311 311 311 308 307 307 308 307 308 308 307 306 306 305 304 303 302 302 301 301 301 302 303 304 303 302 302 302 303 303 303 302 302 302
319 318 317 318 320 318 316 316 316 315 315 315 315 315 316 316 315 314 314 314 314 311 309 309 309 308 307 307 306 305 305 306 306 304 302 303 302 301 300 300 301 301 302 302 301 301 301 301 301 301 301 301 301 301
318 317 317 318 319 318 317 317 317 317 317 316 315 314 314 314 314 313 312 312 312 310 309 308 307 307 306 307 306 306 305 306 305 304 303 302 301 300 300 300 301 301 301 301 301 301 301 300 300 300 300 301 300 301
Wind_Speed
11 10 10 10 10 9 8 7 6 6 7 9 11 13 15 16 17 19 9 6 8 3 11 7 10 11 9 5 2 4 5 4 6 3 3 3 3 4 3 3 6 8 8 3 2 4 5 6 11 4 4 5 8 15
10 10 10 10 9 10 10 9 9 8 8 9 10 12 14 16 15 16 6 12 15 4 6 27 31 29 24 17 5 3 2 3 4 6 2 3 3 5 6 1 3 4 9 4 2 2 7 9 8 8 3 5 6 3
9 8 9 10 8 10 10 10 10 9 8 8 9 11 13 15 14 14 11 13 14 3 8 8 11 28 32 28 23 5 3 7 4 14 3 3 5 5 4 4 8 8 6 4 3 4 6 9 8 9 5 4 5 3
9 8 8 8 9 10 11 10 9 8 8 8 9 11 14 15 16 17 10 12 13 5 4 5 19 19 12 20 20 20 10 9 8 4 3 3 3 1 1 1 3 2 4 1 7 6 5 16 17 11 7 8 4 5
9 9 9 8 8 9 10 11 10 10 10 10 11 13 16 18 19 19 20 14 10 4 4 8 25 25 16 14 11 5 7 5 4 4 1 3 3 4 2 3 2 3 4 3 3 13 20 9 36 17 16 11 10 11
8 9 10 10 9 9 9 10 11 12 12 14 16 17 18 19 17 9 2 4 2 1 3 4 8 8 6 6 4 4 4 5 3 2 2 3 2 4 3 1 5 6 5 5 5 15 16 19 11 4 8 8 9 9
11 9 9 10 10 9 10 11 12 12 14 16 16 18 18 15 11 5 4 1 3 2 3 4 4 5 6 4 3 3 7 3 2 3 3 6 5 6 4 5 10 14 14 13 14 10 6 6 4 6 10 9 16 15
12 12 10 10 10 10 10 11 12 13 15 18 19 18 15 11 12 11 7 12 11 6 4 4 4 4 7 4 3 4 3 3 2 2 4 2 1 2 3 11 13 14 14 9 5 3 4 4 7 5 9 9 8 9
12 11 11 10 10 9 10 11 13 14 17 19 17 13 6 3 4 1 2 1 12 3 3 3 4 3 7 4 3 3 2 2 4 3 3 2 1 3 2 8 8 6 3 3 7 5 3 9 8 8 6 5 8 8
10 11 10 9 9 9 10 12 13 17 19 16 7 4 3 2 2 1 1 4 4 4 4 4 3 4 3 4 3 2 3 3 3 5 3 3 3 3 4 6 6 4 3 7 11 14 5 8 8 8 8 9 10 14
6 5 6 7 7 8 9 10 13 17 3 2 3 2 6 5 3 3 3 4 5 4 5 4 7 5 3 1 2 3 1 3 2 1 2 2 3 7 8 4 1 7 13 13 13 14 16 17 14 13 14 13 17 17
4 4 5 6 6 7 8 9 11 9 5 7 9 8 5 3 3 3 4 4 5 4 4 7 5 6 3 3 0 5 3 4 3 2 4 3 5 9 16 17 13 14 16 16 19 15 17 18 17 14 12 14 17 16
6 5 5 6 6 6 6 7 8 9 9 3 2 3 2 2 3 5 6 4 3 3 3 3 5 4 1 1 4 3 3 1 2 3 2 1 4 8 17 18 11 13 17 15 13 20 21 19 21 17 13 18 18 14
9 6 6 6 6 6 5 6 5 5 2 2 2 3 4 4 5 5 2 3 3 4 3 4 2 2 1 2 2 4 4 2 0 4 1 1 5 4 9 5 6 6 12 10 8 13 12 12 13 16 16 17 16 16
8 8 8 6 5 5 5 3 3 2 1 2 3 3 6 6 6 7 4 2 5 5 3 2 2 3 2 0 2 3 3 2 2 3 4 5 5 4 5 8 1 10 11 10 15 12 13 14 12 12 13 11 11 12
5 5 7 6 4 3 3 2 1 2 2 2 4 5 5 4 5 3 4 3 6 4 4 3 2 3 3 3 3 4 3 2 3 5 8 8 6 5 7 7 4 9 10 11 13 12 11 10 12 13 18 22 25 24
3 2 1 2 4 4 4 3 3 3 3 3 4 6 5 5 3 2 3 3 3 1 1 1 2 2 3 4 5 5 2 4 10 9 7 9 8 6 5 5 7 8 8 9 7 6 10 13 18 20 14 17 19 18
3 3 1 2 3 4 4 3 2 3 4 5 5 2 3 2 2 2 4 4 3 1 2 2 2 1 2 2 1 2 6 9 8 8 6 6 6 9 8 5 5 6 10 11 15 13 18 19 15 13 18 17 19 23
2 1 3 3 4 1 3 5 5 3 5 5 1 2 3 2 2 1 3 3 5 4 3 1 3 3 3 3 4 7 4 7 9 5 4 10 10 9 8 8 11 10 10 12 13 14 20 22 18 19 18 18 17 21
5 5 4 5 5 3 3 3 6 3 3 2 2 2 2 4 2 2 4 5 3 3 5 4 3 3 3 3 1 7 5 6 7 8 6 5 10 13 10 10 8 11 10 13 17 19 17 18 19 18 21 23 18 17
3 2 4 5 4 7 4 2 3 3 3 2 2 3 3 0 3 4 5 5 5 3 2 3 5 7 16 19 12 10 7 10 7 6 5 3 5 12 14 18 15 18 16 15 12 16 18 15 13 14 18 18 15 19
1 2 3 5 3 3 3 5 3 2 2 1 3 2 2 0 2 3 3 5 3 2 2 4 4 5 9 8 9 16 16 17 16 14 15 14 6 7 10 14 14 11 15 14 15 13 14 11 13 14 17 16 14 19
3 3 3 4 3 1 5 4 3 3 3 3 2 3 3 1 2 3 3 2 3 3 4 5 7 7 5 8 10 13 14 14 10 10 11 9 9 14 17 16 16 14 11 13 10 12 12 12 11 13 16 14 10 12
4 3 3 3 5 3 3 3 2 2 2 2 2 2 1 2 2 3 3 2 1 2 1 4 6 2 5 11 6 9 13 12 12 16 17 6 10 14 16 15 13 12 11 10 11 11 11 11 10 9 12 10 9 8
2 4 3 4 3 3 4 3 4 2 3 2 3 1 2 2 3 3 3 4 6 5 2 8 3 2 6 5 5 10 15 13 13 8 15 16 13 17 17 16 14 11 10 10 9 8 8 7 7 7 6 5 4 4
1 2 3 3 2 2 4 2 3 3 2 1 3 0 2 2 4 3 1 2 3 4 3 1 2 4 5 10 6 8 11 11 17 12 12 14 17 15 9 9 10 11 9 9 8 9 8 8 8 9 8 3 4 5
2 0 2 3 2 2 3 3 4 1 2 1 1 2 2 3 3 1 1 1 2 6 11 12 13 10 9 11 11 11 10 14 15 12 11 12 13 11 12 12 8 3 5 5 6 8 9 9 8 9 9 10 13 10
2 4 3 2 2 2 3 3 1 2 2 1 2 3 3 3 2 2 2 3 3 2 3 4 8 9 10 12 11 11 9 9 10 11 11 11 11 9 7 7 4 5 6 2 1 0 3 6 6 7 8 9 10 14
3 3 5 9 7 5 6 4 5 2 2 2 1 3 3 2 3 4 4 4 2 1 4 5 7 8 8 5 4 5 6 6 7 3 2 4 7 7 6 4 2 3 7 9 7 6 6 5 8 9 10 11 12 15
4 3 5 6 4 5 3 2 4 7 6 6 5 6 6 5 4 5 5 3 3 5 6 6 8 10 10 10 8 7 11 11 11 13 7 5 7 6 6 5 5 7 4 5 7 7 6 10 13 11 8 11 8 11
3 4 3 3 3 2 5 9 13 11 9 9 8 8 7 4 3 5 6 7 11 14 12 7 6 3 6 10 10 8 12 11 10 9 7 9 12 11 10 10 11 12 10 7 6 9 13 11 11 11 8 10 12 13
3 3 3 3 2 3 6 6 6 8 8 7 8 7 5 5 5 3 6 9 13 3 3 6 10 12 11 9 10 9 5 10 12 6 3 4 4 4 8 5 9 9 10 11 10 11 12 13 13 13 13 13 13 14
6 6 6 4 3 3 3 3 3 2 3 5 4 4 3 2 3 2 3 2 5 7 10 9 8 7 3 5 4 1 2 5 5 3 5 2 4 7 4 4 5 6 8 10 10 11 11 12 13 14 14 14 14 16
Wind_Direction
342 349 354 357 353 342 340 332 329 327 328 333 338 342 343 348 360 353 289 330 306 285 290 264 318 322 329 332 65 316 5 45 297 320 32 118 72 10 346 84 84 359 339 275 94 53 266 346 337 36 271 282 43 140
334 341 351 350 348 351 346 337 326 322 322 328 334 339 343 346 355 356 292 324 336 260 269 300 288 272 261 265 278 165 194 89 271 63 326 57 133 129 183 276 349 209 209 229 267 93 215 292 297 234 183 63 4 117
312 324 330 347 352 353 346 342 339 331 327 325 327 330 333 337 346 348 310 319 320 271 282 242 246 262 242 236 237 228 288 145 166 276 129 183 120 190 155 170 146 215 242 227 115 262 149 245 255 240 158 212 177 81
306 304 315 322 332 336 351 338 338 339 331 325 320 321 325 329 329 327 309 294 309 287 283 299 341 261 208 223 227 215 224 241 235 198 138 155 136 213 120 85 215 212 347 262 115 33 340 355 306 233 173 230 198 273
301 299 294 302 306 314 321 342 336 321 318 316 313 318 321 322 319 313 297 274 237 268 310 299 303 290 241 206 247 195 231 231 274 289 125 125 161 149 9 23 277 110 352 346 113 118 113 165 266 182 197 194 158 118
303 299 297 291 297 301 305 317 314 333 314 306 306 310 313 317 322 343 222 151 108 20 275 292 334 287 245 127 168 250 250 245 239 266 307 80 172 106 103 154 301 150 145 211 205 201 164 200 224 27 114 115 106 97
283 296 300 297 289 292 302 305 305 310 317 325 316 307 306 311 313 245 293 111 8 306 250 285 277 230 200 187 206 228 226 243 225 279 276 131 177 194 169 152 214 187 187 207 228 205 287 257 126 45 108 115 113 106
290 276 285 298 294 290 298 302 305 305 311 317 315 309 305 296 285 284 303 242 235 279 281 278 271 297 163 213 214 206 203 183 267 253 327 93 154 116 75 136 173 202 219 240 118 81 268 108 96 50 116 126 132 120
286 287 269 286 292 292 299 302 304 307 310 311 311 308 301 223 234 148 242 219 195 282 297 275 290 301 342 251 213 174 178 179 209 175 244 52 39 64 340 117 109 95 74 28 331 309 75 76 54 42 67 126 127 127
285 277 261 275 283 289 300 305 305 310 307 302 301 237 217 40 237 312 194 176 198 204 223 253 275 283 346 6 317 137 163 218 183 210 116 128 71 38 67 91 95 101 73 60 66 27 34 89 84 60 57 39 64 67
294 273 267 272 280 295 303 310 317 325 14 201 253 303 320 297 254 223 240 225 197 221 203 231 232 269 209 225 338 324 116 20 303 10 206 149 89 28 3 67 2 65 86 76 79 70 56 58 55 49 55 61 70 81
287 279 271 275 282 294 304 317 325 342 354 324 301 305 295 230 220 232 212 221 213 231 232 199 214 212 246 190 170 351 39 353 42 324 49 42 33 349 27 354 68 70 72 71 61 60 58 57 54 52 57 68 63 80
263 273 277 277 278 292 305 315 326 321 323 293 267 258 232 199 192 222 197 208 218 222 276 190 214 196 120 333 98 81 57 342 114 60 100 107 67 21 45 333 55 67 73 65 60 66 61 57 53 54 54 53 61 63
248 258 279 292 282 280 297 312 321 346 331 285 237 264 217 212 234 228 253 295 287 321 279 36 21 24 175 145 237 122 210 137 228 167 148 137 125 115 81 15 355 75 71 67 78 78 81 72 62 54 61 53 53 52
247 250 275 286 286 273 291 281 332 336 325 272 263 247 229 235 269 277 307 60 359 340 1 62 49 353 307 116 88 85 144 145 36 101 122 136 129 94 106 105 62 64 69 59 44 44 49 58 61 59 54 43 37 26
217 271 277 254 262 264 268 272 238 221 245 244 231 263 275 292 313 8 346 61 350 339 329 1 45 45 330 341 225 182 201 126 133 112 117 119 113 85 77 74 43 64 67 66 55 36 30 37 41 65 64 72 61 63
183 251 219 229 262 265 209 193 208 220 267 250 239 253 288 264 268 336 343 343 267 61 87 78 82 29 354 303 343 348 65 92 108 119 124 126 135 149 139 113 81 69 59 49 26 25 34 73 60 54 41 64 49 50
288 228 286 239 155 157 176 234 257 239 247 249 261 303 327 321 147 314 19 307 65 37 49 77 119 320 87 287 28 25 84 84 81 89 97 99 89 80 94 109 101 87 69 69 91 71 66 62 51 43 36 29 52 49
305 312 309 190 195 194 234 207 212 259 243 264 17 70 298 322 355 87 278 36 45 47 117 97 47 34 346 333 109 96 98 108 106 100 84 80 95 101 106 110 109 100 92 64 67 79 70 57 45 39 40 42 72 50
276 269 225 214 211 248 246 204 201 256 275 314 69 65 57 283 225 82 40 34 15 42 37 38 64 22 320 319 274 122 113 107 119 110 96 70 74 76 71 53 75 124 90 86 61 68 65 51 34 33 52 42 48 45
306 196 190 207 232 224 278 282 222 244 300 41 21 53 299 203 75 58 59 8 50 35 62 81 89 64 41 32 25 84 110 97 89 105 113 106 117 67 51 37 56 72 62 42 67 71 64 49 15 55 53 43 40 53
194 225 244 211 260 240 253 244 244 209 50 61 1 88 290 105 99 54 63 45 42 21 52 94 89 91 80 59 24 45 65 75 83 75 69 64 59 62 55 45 38 71 66 55 57 80 76 59 27 72 66 45 40 60
303 240 239 225 255 225 256 227 246 190 136 175 215 228 174 95 88 116 74 41 79 52 83 89 91 110 118 109 84 74 82 88 90 100 98 97 78 89 76 62 50 36 65 58 59 70 87 60 29 80 67 48 34 54
255 251 239 240 202 249 205 211 225 73 34 58 2 272 87 98 104 63 64 52 96 149 78 110 119 109 109 68 46 33 53 82 70 38 22 104 119 103 96 81 68 44 34 60 57 66 57 64 36 51 79 57 20 44
255 285 146 285 264 240 210 191 112 132 84 72 357 254 94 14 77 61 31 22 34 40 69 134 179 165 104 115 102 45 38 63 80 55 21 16 17 127 113 99 81 64 42 47 37 55 54 51 51 6 74 85 43 56
286 212 127 333 357 327 358 45 63 89 111 158 254 142 68 58 76 76 76 322 16 30 22 226 151 81 57 63 69 60 28 18 98 74 50 40 32 31 80 116 103 65 44 43 39 23 32 26 20 7 7 354 234 314
289 228 57 59 314 327 63 53 54 342 209 79 320 111 98 61 92 103 174 274 27 3 359 34 70 84 84 78 72 70 71 76 87 93 90 83 74 66 67 74 58 60 73 52 65 45 23 7 2 352 355 340 341 343
338 49 89 235 143 124 133 145 138 356 49 328 333 50 54 59 108 151 209 195 212 318 358 43 54 83 117 144 148 142 139 143 147 144 137 126 110 97 119 134 134 131 169 193 137 81 349 351 336 327 333 329 332 321
55 22 38 37 46 46 29 28 19 22 292 239 97 89 93 74 146 147 185 173 185 251 290 280 162 131 127 125 86 87 157 168 129 117 40 101 74 80 67 49 347 264 230 237 253 232 248 281 295 295 293 293 296 294
64 42 81 36 35 38 324 327 19 59 44 82 104 114 103 103 107 141 156 193 232 235 237 234 193 170 160 130 119 107 85 65 44 37 24 28 24 37 39 38 1 313 310 308 322 351 265 265 291 304 285 291 314 341
101 86 67 56 72 351 46 67 64 73 82 85 87 98 104 119 163 228 241 267 268 259 246 164 134 115 107 76 59 78 111 117 105 87 57 15 14 6 0 345 327 330 330 325 346 331 325 323 319 316 336 348 340 340
106 117 128 109 108 110 101 86 93 104 106 102 108 131 143 134 110 172 231 237 265 187 89 10 100 82 60 95 101 76 55 106 106 101 95 54 23 355 332 325 329 346 350 347 335 329 323 323 345 357 353 338 338 328
105 112 117 119 139 157 183 153 120 94 97 98 92 95 109 62 95 148 172 255 348 23 95 78 84 86 82 93 73 111 199 171 196 223 186 178 56 19 23 4 1 351 341 334 328 321 324 355 347 336 329 325 332 321